DELTA 1 DEB, 10717

Orbit data source: Space-Track

DELTA 1 DEB, 10717 is space debris in SSO originally from a launch on Thu, 29 Jul 1976 UTC launched from the Air Force Western Test Range (AFWTR). Debris objects in space refer to the collection of defunct objects orbiting the Earth. Examples of debris include non-operational satellites, rocket bodies, and fragments generated from explosions, collisions, or faulty payload assembly.

Loading next visibility...
Identifier
10717, 1976-077AN
Orbit
SSO
Country
Flag of USUS
Related business
Manufacturer
Unknown
Mission
Spacecraft
Bus & Motor
Unknown
Mass
Unknown
Launch date (UTC)
1976-07-29 (49 years ago)
Launch vehicle
Unknown
Launch site
Air Force Western Test Range (AFWTR)
Object type
Payload
Rocket body
Debris
Shape & HBR
Unknown shape, 0.1 m
Radar Cross Section
Small (<0.1 m²)

Expand to show TLE details & history
Last TLE update: 19 hours ago

TLE from 19 hours ago
0 DELTA 1 DEB
1 10717U 76077AN  25290.87359701  .00000014  00000-0  54587-3 0  9998
2 10717 102.6210 270.0799 0100532   5.0318  67.0717 12.23318285198104
Epoch: 2025-10-17T20:57Z
TLE epoch observation values (Epoch: 2025-10-17T20:57:58.781Z)
Latitude
69.15038°
Longitude
-106.8348°
Altitude
1,559.406 km
Speed
7.107 km/s
True Right ascension
15h 37m 05s
True Declination
69° 02' 50"
Sunlit
Object was in daylight at epoch
Visualization orbit readout
Latitude
Unknown
Longitude
Unknown
Altitude
Unknown
Speed
Unknown
Apparent Right ascension
Unknown
Apparent Declination
Unknown
Sunlit
N/A
Visualization observer readout
Local Sidereal Time
10:35:34
Azimuth
Unknown
Elevation
Unknown
Doppler factor
Unknown
Orbital elements
Apogee altitude
1,655.717 km
Perigee altitude
1,495.793 km
Semi-major axis
7,953.892 km
Eccentricity
0.01005
Inclination
102.621°
RAAN
270.0799°
Arg. of periapsis
5.0318°
True anomaly
68.13785°
Mean anomaly
67.0717°
Eccentric anomaly
67.60426°
Mean motion
3.05966 °/min
Orbital period
117.66 mins
BSTAR
0.00054587
Loading maneuver chart data...
Computing Atmospheric mass density...
Loading historical data...
Loading historical data...
Loading historical data...
Loading historical data...
Loading historical data...
Loading historical data...
Loading historical data...

Documentation

Showing up to 5 results
|